FALCON 9 DEB (53643 NORAD) Tracking and Keplerian Element Data

This shows tracking and keplerian element data for the satellite.

Feedback or suggestion? Click here.




ElementValue
Catalog53643
NameFALCON 9 DEB
Epoch Orbit122
Epoch Day247.71244242
Epoch Year2022
RAAN250.192
Inclination53.2174
Eccentricity0.0063488
Argument of Perigee72.4317
Mean Anonmoly288.3638
Mean Motion16.03158099
Decay Rate0.00703617
L11 53643U 22104BH 22247.71244242 .00703617 24733-3 86461-3 0 9997
L22 53643 53.2174 250.1920 0063488 72.4317 288.3638 16.03158099 1222



Live tracking and technical data element details for FALCON 9 DEB (NORAD 53643). FALCON 9 DEB can be tracked NOW for your location showing map with azimuth and elevation plus other details from your city location.







IsCatalogInMostPopularTable: catalog: 53643, numindb: -1

Insert: records affected: 1


GetName: 53643 FALCON 9 DEB

Hit Count: inserted at: Thu, 08 Dec 2022 19:04:04 GMT